User: anonymous   Login
Location: Oshawa
(43.9000°N, 78.8670°W)
Time: 17:08:01
(UTC-05:00)
Language:

Cosmos 1408 Rocket - Orbit

View from above orbital plane
View from above orbital plane
View from above satellite
View from above satellite

Ground track
Ground track

The orbit data is extracted from the following two-line orbital elements,

1 13553U 82092B   17326.94144115  .00000118  00000-0  11204-4 0  9998
2 13553  82.5693  86.1754 0020113 238.0348 261.3715 14.84147211900588
Epoch (UTC): 22 November 2017 22:35:40
Eccentricity: 0.0020113
inclination: 82.5693°
perigee height: 602 km
apogee height: 630 km
right ascension of ascending node: 86.1754°
argument of perigee: 238.0348°
revolutions per day: 14.84147211
mean anomaly at epoch: 261.3715°
orbit number at epoch: 90058

The dashed part of the orbit path shows where the satellite is in the earth's shadow,  

DLR